Location: Eastlake (historical)
(39.0077°N, 122.6678°W)
Time: 10:09:33
(UTC+00:00)

ATLAS 2AS CENTAUR R/B - Pass Details

Date: 25 November 2020
Orbit: 943 x 1268 km, 63.7° (Epoch: 22 January)

Event Time Altitude Azimuth Distance (km) Brightness Sun altitude
Rises 14:15:09 0° 235° (SW) 4,183 5.4 -9.8°
Reaches altitude 10° 14:18:06 10° 242° (WSW) 3,238 4.8 -9.2°
Maximum altitude 14:25:34 44° 312° (NW) 1,691 3.4 -7.9°
Drops below altitude 10° 14:33:01 10° 23° (NNE) 3,225 5.2 -6.5°
Sets 14:35:58 0° 30° (NNE) 4,165 5.9 -6.0°
